Track DIRECTV 3 (DBS/NIMIQ 3) now! DIRECTV 3 (DBS/NIMIQ 3) is classified as:
1 23598U 95029A 22185.30015854 -.00000045 00000-0 00000-0 0 9996 2 23598 9.4845 45.1547 0008202 23.5750 346.5492 0.99002892 98479